Showing default

PORCUPINE 2, 1577

Orbit data source: Space-Track

PORCUPINE 2, 1577 is a payload satellite owned by NRL (US) in LEO that was launched on Fri, 13 Aug 1965 UTC via a THOR ABLESTAR launch vehicle from the Air Force Western Test Range (AFWTR). Payload-class satellites include a variety of spacecraft equipped with specific instruments for various scientific and technological missions. These include communications satellites like Starlink; space stations such as the ISS; scientific satellites like the Hubble; Earth observation satellites from companies like Planet Labs, Umbra, and HawkEye 360; GPS; miniature CubeSats for education and research; and military/defense satellites.

Loading next visibility...
Identifier
1577, 1965-065J
Orbit
LEO
Country
Flag of USUS
Related business
Manufacturer
NRL
Mission
Spacecraft
Bus & Motor
SURCAL, Unknown motor
Mass
5 kg wet, 5 kg dry
Launch date (UTC)
1965-08-13 (61 years ago)
Launch vehicle
THOR ABLESTAR
Launch site
Air Force Western Test Range (AFWTR)
Object type
Payload
Rocket body
Debris
Shape & HBR
Unknown
Radar Cross Section
Medium (>0.1 m² and <1 m²)

Expand to show TLE details & history
Last TLE update: 16 hours ago

TLE from 16 hours ago
0 PORCUPINE 2
1 01577U 65065J   26111.55821124  .00000097  00000-0  17058-3 0  9991
2 01577  90.0314 211.9146 0067986 262.9903 113.9073 13.36246245955098
Epoch: 2026-04-21T13:23Z
TLE epoch observation values (Epoch: 2026-04-21T13:23:49.451Z)
Latitude
17.59547°
Longitude
161.31638°
Altitude
1,146.615 km
Speed
7.271 km/s
True Right ascension
14h 07m 37s
True Declination
17° 30' 06"
Sunlit
Object was in full shadow at epoch
Visualization orbit readout
Latitude
Unknown
Longitude
Unknown
Altitude
Unknown
Speed
Unknown
Apparent Right ascension
Unknown
Apparent Declination
Unknown
Sunlit
N/A
Visualization observer readout
Local Sidereal Time
12:07:40
Azimuth
Unknown
Elevation
Unknown
Doppler factor
Unknown
Orbital elements
Apogee altitude
1,171.344 km
Perigee altitude
1,069.385 km
Semi-major axis
7,498.502 km
Eccentricity
0.0068
Inclination
90.0314°
RAAN
211.9146°
Arg. of periapsis
262.9903°
True anomaly
114.61706°
Mean anomaly
113.9073°
Eccentric anomaly
114.26242°
Mean motion
3.34258 °/min
Orbital period
107.7 mins
BSTAR
0.00017058
Loading maneuver chart data...
Computing Atmospheric mass density...
Loading historical data...
Loading historical data...
Loading historical data...
Loading historical data...
Loading historical data...
Loading historical data...
Loading historical data...

Documentation

Showing up to 5 results
|